Main page
METAR-TAF:

METAR-TAF

Airports :

Meacham, Oregon, United States

latitude: 45-30-41N, longitude: 118-25-29W, elevation: 3723 ft

Current weather observation

The report was made 1 hour and 14 minutes ago, at 21:56 UTC
Wind 3 mph from variable directions
Temperature 75°F
Humidity 25%
Pressure 29.99 in. Hg
Visibility: 10 miles
Clear sky

METAR: KMEH 132156Z AUTO VRB03KT 10SM CLR 24/03 A2999 RMK AO2 SLP150 T02390033

Time: 16:10 (23:10 UTC)


TAF: missing

Weather observations and forecasts of more than 4000 airports (METAR and TAF reports).

The available stations are represented by yellow and red dots on the map.

Hover mouse over dot to see the name of the station.

Then click to see weather observations and forecasts.

To change the map : click on the green buttons with a black cross to zoom in, on the green button with a dash to zoom out, or on the green arrows for adjacent maps.


METAR-TAF: